Search the data

BODC Cruise Metadata Report for RRS Frederick Russell cruise FR13/87

Introduction

This report collates information from the BODC cruise inventory and oceanographic databases. It presents

Cruise Inventory Information

Long name RRS Frederick Russell cruise FR13/87
Short name FR13/87
Objectives and Narrative Physical oceanography. Lorn/Clyde Pelagic Study,(UCNW)
Ship RRS Frederick Russell
Departure Port Plymouth, United Kingdom
Departure Date 1987-03-19
Arrival Port
Arrival Date 1987-03-27
Principal Scientist(s) Jack B L Matthews (Scottish Marine Biological Association)
Responsible Organisation WHOI-GG, IMARES, IJmuiden
Associated Project(s)
IHB Sea Areas Visited Inner Seas off the West Coast of Scotland
Marsden Squares Visited 181;245/181;354/181;455/181;456/181;457/181;458/181;465/181;466/181;467/181;468
Work Area Description Clyde Approaches/ Minches/W. Scotland
Work Area Bounding Polygon 54N,9W; 57N,9W; 57N,4W; 54N,4W; 54N,9W
Southern Limit 54N
Northern Limit 57N
Western Limit 9W
Eastern Limit 4W

Cruise Inventory Datasets

Physical oceanography  
CTD stations Quantity: number of stations = 115
Description:  
Optics (eg underwater light levels) Quantity: number of stations = 49
Description: floppy disc  
Water bottle stations Quantity: number of stations = 115
Description:  
Chemical oceanography  
Nitrate Quantity: number of stations = 111
Description:  
Phosphate Quantity: number of stations = 111
Description:  
Radioactivity Quantity: number of samples = 2
Description: Cs  
Silicate Quantity: number of stations = 111
Description:  
Biology and fisheries  
Phytoplankton Quantity: number of stations = 27
Description:  
Phytoplankton pigs (eg chlorophyll, fluorescence) Quantity: number of stations = 117
Description:  
Primary productivity Quantity: number of stations = 3
Description:  
Zooplankton Quantity: number of stations = 39
Description: survey:distribution,biomass determination,population,energy transfers  

Cruise Inventory Mooring/Buoy Operations

No information on datasets is currently available

Summary of BODC Data Holdings for the Cruise

National Oceanographic Database

Summary

# Series Instrument Description Parameters
113 CTD/STD cast Salinity of the water column
Temperature of the water column
Vertical spatial coordinates

Note: Parameter terms are taken from the BODC Parameter Discovery Vocabulary XML (SKOS)

Full List

BODC Reference Instrument Description Date/Time Location  
382942 CTD/STD cast 1987-03-19 17:47Z 55° 27' N, 5° 28' W Click for more
382954 CTD/STD cast 1987-03-19 21:38Z 55° 37' N, 5° 22' W Click for more
382966 CTD/STD cast 1987-03-19 22:34Z 55° 37' N, 5° 27' W Click for more
382978 CTD/STD cast 1987-03-19 23:38Z 55° 34' N, 5° 25' W Click for more
382991 CTD/STD cast 1987-03-20 00:45Z 55° 39' N, 5° 25' W Click for more
383005 CTD/STD cast 1987-03-20 01:58Z 55° 42' N, 5° 21' W Click for more
383017 CTD/STD cast 1987-03-20 04:23Z 55° 44' N, 5° 22' W Click for more
383029 CTD/STD cast 1987-03-20 05:23Z 55° 45' N, 5° 15' W Click for more
383030 CTD/STD cast 1987-03-20 06:27Z 55° 46' N, 5° 13' W Click for more
383042 CTD/STD cast 1987-03-20 08:51Z 55° 50' N, 5° 10' W Click for more
383054 CTD/STD cast 1987-03-20 11:03Z 55° 49' N, 5° 17' W Click for more
383066 CTD/STD cast 1987-03-20 12:18Z 55° 54' N, 5° 22' W Click for more
383078 CTD/STD cast 1987-03-20 15:24Z 55° 58' N, 5° 22' W Click for more
383091 CTD/STD cast 1987-03-20 18:19Z 55° 42' N, 5° 9' W Click for more
383109 CTD/STD cast 1987-03-20 19:20Z 55° 42' N, 5° 4' W Click for more
383110 CTD/STD cast 1987-03-20 21:03Z 55° 49' N, 4° 55' W Click for more
383122 CTD/STD cast 1987-03-20 22:38Z 55° 49' N, 4° 58' W Click for more
383134 CTD/STD cast 1987-03-20 23:49Z 55° 53' N, 5° 4' W Click for more
383146 CTD/STD cast 1987-03-21 02:53Z 55° 40' N, 5° 1' W Click for more
383158 CTD/STD cast 1987-03-21 04:14Z 55° 39' N, 5° 1' W Click for more
383171 CTD/STD cast 1987-03-21 04:57Z 55° 39' N, 5° 1' W Click for more
383183 CTD/STD cast 1987-03-21 06:24Z 55° 38' N, 5° 1' W Click for more
383195 CTD/STD cast 1987-03-21 07:33Z 55° 39' N, 4° 55' W Click for more
383202 CTD/STD cast 1987-03-21 08:47Z 55° 37' N, 5° 0' W Click for more
383214 CTD/STD cast 1987-03-21 09:52Z 55° 36' N, 5° 4' W Click for more
383226 CTD/STD cast 1987-03-21 11:12Z 55° 36' N, 4° 58' W Click for more
383238 CTD/STD cast 1987-03-21 13:57Z 55° 31' N, 4° 52' W Click for more
383251 CTD/STD cast 1987-03-21 15:11Z 55° 28' N, 4° 45' W Click for more
383263 CTD/STD cast 1987-03-21 16:56Z 55° 28' N, 4° 49' W Click for more
383275 CTD/STD cast 1987-03-21 18:08Z 55° 28' N, 4° 55' W Click for more
383287 CTD/STD cast 1987-03-21 19:05Z 55° 28' N, 5° 1' W Click for more
383299 CTD/STD cast 1987-03-21 21:33Z 55° 34' N, 4° 58' W Click for more
383306 CTD/STD cast 1987-03-21 23:42Z 55° 22' N, 5° 4' W Click for more
383318 CTD/STD cast 1987-03-22 00:42Z 55° 22' N, 4° 58' W Click for more
383331 CTD/STD cast 1987-03-22 01:46Z 55° 22' N, 4° 51' W Click for more
383343 CTD/STD cast 1987-03-22 02:49Z 55° 16' N, 4° 56' W Click for more
383355 CTD/STD cast 1987-03-22 07:28Z 55° 19' N, 5° 4' W Click for more
383367 CTD/STD cast 1987-03-22 08:20Z 55° 19' N, 5° 7' W Click for more
383379 CTD/STD cast 1987-03-22 10:12Z 55° 22' N, 5° 12' W Click for more
383380 CTD/STD cast 1987-03-22 11:31Z 55° 24' N, 5° 19' W Click for more
383392 CTD/STD cast 1987-03-22 12:55Z 55° 19' N, 5° 19' W Click for more
383411 CTD/STD cast 1987-03-22 14:48Z 55° 16' N, 5° 13' W Click for more
383423 CTD/STD cast 1987-03-22 15:39Z 55° 13' N, 5° 12' W Click for more
383435 CTD/STD cast 1987-03-22 16:39Z 55° 13' N, 5° 3' W Click for more
383447 CTD/STD cast 1987-03-22 17:32Z 55° 13' N, 4° 58' W Click for more
383459 CTD/STD cast 1987-03-22 18:58Z 55° 9' N, 5° 3' W Click for more
383460 CTD/STD cast 1987-03-22 19:50Z 55° 10' N, 5° 10' W Click for more
383472 CTD/STD cast 1987-03-22 21:14Z 55° 13' N, 5° 15' W Click for more
383484 CTD/STD cast 1987-03-22 22:11Z 55° 16' N, 5° 24' W Click for more
383496 CTD/STD cast 1987-03-22 22:57Z 55° 12' N, 5° 27' W Click for more
383503 CTD/STD cast 1987-03-23 00:28Z 55° 9' N, 5° 19' W Click for more
383515 CTD/STD cast 1987-03-23 02:09Z 55° 7' N, 5° 13' W Click for more
383527 CTD/STD cast 1987-03-23 02:52Z 55° 6' N, 5° 7' W Click for more
383539 CTD/STD cast 1987-03-23 03:29Z 55° 4' N, 5° 4' W Click for more
383540 CTD/STD cast 1987-03-23 05:02Z 55° 4' N, 5° 16' W Click for more
383552 CTD/STD cast 1987-03-23 07:27Z 54° 57' N, 5° 13' W Click for more
383564 CTD/STD cast 1987-03-23 09:28Z 54° 48' N, 5° 4' W Click for more
383576 CTD/STD cast 1987-03-23 10:20Z 54° 46' N, 5° 10' W Click for more
383588 CTD/STD cast 1987-03-23 11:19Z 54° 43' N, 5° 15' W Click for more
383607 CTD/STD cast 1987-03-23 13:20Z 54° 43' N, 5° 19' W Click for more
383619 CTD/STD cast 1987-03-23 17:01Z 55° 1' N, 5° 21' W Click for more
383620 CTD/STD cast 1987-03-23 18:10Z 55° 4' N, 5° 26' W Click for more
383632 CTD/STD cast 1987-03-23 19:41Z 55° 9' N, 5° 31' W Click for more
383644 CTD/STD cast 1987-03-23 20:53Z 55° 16' N, 5° 37' W Click for more
383656 CTD/STD cast 1987-03-23 22:02Z 55° 19' N, 5° 28' W Click for more
383668 CTD/STD cast 1987-03-23 23:16Z 55° 22' N, 5° 27' W Click for more
383681 CTD/STD cast 1987-03-24 00:03Z 55° 27' N, 5° 28' W Click for more
383693 CTD/STD cast 1987-03-24 02:57Z 55° 13' N, 5° 37' W Click for more
383700 CTD/STD cast 1987-03-24 04:09Z 55° 15' N, 5° 46' W Click for more
383712 CTD/STD cast 1987-03-24 05:52Z 55° 13' N, 5° 52' W Click for more
383724 CTD/STD cast 1987-03-24 06:46Z 55° 11' N, 5° 55' W Click for more
383736 CTD/STD cast 1987-03-24 11:28Z 55° 13' N, 6° 45' W Click for more
383748 CTD/STD cast 1987-03-24 15:41Z 55° 19' N, 6° 40' W Click for more
383761 CTD/STD cast 1987-03-24 16:41Z 55° 23' N, 6° 37' W Click for more
383773 CTD/STD cast 1987-03-24 18:22Z 55° 28' N, 6° 33' W Click for more
383785 CTD/STD cast 1987-03-24 19:29Z 55° 33' N, 6° 30' W Click for more
383797 CTD/STD cast 1987-03-24 20:58Z 55° 37' N, 6° 25' W Click for more
383804 CTD/STD cast 1987-03-24 21:52Z 55° 42' N, 6° 22' W Click for more
383816 CTD/STD cast 1987-03-24 23:25Z 55° 46' N, 6° 37' W Click for more
383828 CTD/STD cast 1987-03-25 01:13Z 55° 46' N, 6° 46' W Click for more
383841 CTD/STD cast 1987-03-25 02:12Z 55° 46' N, 6° 55' W Click for more
383853 CTD/STD cast 1987-03-25 03:07Z 55° 46' N, 7° 4' W Click for more
383865 CTD/STD cast 1987-03-25 05:05Z 55° 46' N, 7° 16' W Click for more
383877 CTD/STD cast 1987-03-25 06:55Z 55° 46' N, 7° 28' W Click for more
383889 CTD/STD cast 1987-03-25 08:25Z 55° 46' N, 7° 40' W Click for more
383890 CTD/STD cast 1987-03-25 10:24Z 55° 46' N, 8° 0' W Click for more
383908 CTD/STD cast 1987-03-25 15:23Z 56° 10' N, 8° 45' W Click for more
383921 CTD/STD cast 1987-03-25 18:10Z 56° 10' N, 8° 30' W Click for more
383933 CTD/STD cast 1987-03-25 20:04Z 56° 10' N, 8° 45' W Click for more
383945 CTD/STD cast 1987-03-25 22:17Z 56° 10' N, 8° 15' W Click for more
383957 CTD/STD cast 1987-03-25 23:57Z 56° 10' N, 8° 0' W Click for more
383969 CTD/STD cast 1987-03-26 02:24Z 56° 10' N, 7° 30' W Click for more
383970 CTD/STD cast 1987-03-26 03:53Z 56° 10' N, 7° 15' W Click for more
383982 CTD/STD cast 1987-03-26 05:14Z 56° 9' N, 7° 0' W Click for more
383994 CTD/STD cast 1987-03-26 06:42Z 56° 10' N, 6° 45' W Click for more
384008 CTD/STD cast 1987-03-26 08:16Z 56° 10' N, 6° 30' W Click for more
384021 CTD/STD cast 1987-03-26 10:12Z 56° 9' N, 6° 19' W Click for more
384033 CTD/STD cast 1987-03-26 12:25Z 56° 12' N, 6° 10' W Click for more
384045 CTD/STD cast 1987-03-26 13:37Z 56° 13' N, 6° 1' W Click for more
384057 CTD/STD cast 1987-03-26 15:28Z 56° 10' N, 5° 58' W Click for more
384069 CTD/STD cast 1987-03-26 16:38Z 56° 7' N, 5° 55' W Click for more
384070 CTD/STD cast 1987-03-26 18:15Z 56° 4' N, 5° 52' W Click for more
384082 CTD/STD cast 1987-03-26 19:52Z 56° 14' N, 6° 1' W Click for more
384094 CTD/STD cast 1987-03-26 20:39Z 56° 13' N, 6° 4' W Click for more
384101 CTD/STD cast 1987-03-26 21:54Z 56° 16' N, 5° 49' W Click for more
384113 CTD/STD cast 1987-03-26 23:24Z 56° 19' N, 5° 40' W Click for more
384125 CTD/STD cast 1987-03-27 01:08Z 56° 28' N, 5° 30' W Click for more
384137 CTD/STD cast 1987-03-27 03:12Z 56° 29' N, 5° 38' W Click for more
384149 CTD/STD cast 1987-03-27 05:42Z 56° 37' N, 5° 24' W Click for more
384150 CTD/STD cast 1987-03-27 08:02Z 56° 31' N, 5° 46' W Click for more
384162 CTD/STD cast 1987-03-27 10:10Z 56° 35' N, 5° 59' W Click for more
384174 CTD/STD cast 1987-03-27 11:26Z 56° 40' N, 6° 7' W Click for more
384186 CTD/STD cast 1987-03-27 13:15Z 56° 40' N, 6° 16' W Click for more

Project Database

No data currently held for this cruise in the BODC Project Database

References

Track Charts

Track Chart

Reports

Cruise Report